"read_dt","SO2 (ppb)","flags","PMT voltage (V)","lamp voltage (V)","lamp intensity (Hz)","internal temp (C)","react chamber temp (C)","sample flow (l/min)","pres (mmHg)","SO2 bkg (ppb)","SO2 coefficient"
2013-12-13 00:00:00,2878E-4,5C000000,-0724,0974,10793,028.3,045.4,0.394,745.3,01.17,0.508
2013-12-13 00:01:00,3859E-4,5C000000,-0724,0974,10783,028.3,045.4,0.394,745.2,01.17,0.508
2013-12-13 00:02:00,2181E-4,5C000000,-0724,0974,10867,028.3,045.3,0.394,745.2,01.17,0.508
2013-12-13 00:03:00,3397E-4,5C000000,-0724,0974,10732,028.3,045.3,0.394,745.2,01.17,0.508
2013-12-13 00:04:00,3047E-4,5C000000,-0724,0973,10750,028.3,045.4,0.394,745.3,01.17,0.508
2013-12-13 00:05:00,2758E-4,5C000000,-0724,0974,10878,028.3,045.3,0.394,745.2,01.17,0.508
2013-12-13 00:06:00,3899E-4,5C000000,-0724,0974,10657,028.3,045.3,0.394,745.3,01.17,0.508
2013-12-13 00:07:00,2741E-4,5C000000,-0724,0974,10864,028.3,045.4,0.394,745.0,01.17,0.508
2013-12-13 00:08:00,1960E-4,5C000000,-0724,0975,10832,028.3,045.4,0.394,745.2,01.17,0.508
2013-12-13 00:09:00,1987E-4,5C000000,-0724,0975,10852,028.3,045.4,0.394,745.3,01.17,0.508
2013-12-13 00:10:00,2604E-4,5C000000,-0724,0975,10714,028.3,045.4,0.394,745.3,01.17,0.508
2013-12-13 00:11:00,3244E-4,5C000000,-0724,0973,10850,028.3,045.4,0.394,745.0,01.17,0.508
2013-12-13 00:12:00,2499E-4,5C000000,-0724,0974,10829,028.3,045.3,0.394,745.0,01.17,0.508
2013-12-13 00:13:00,2986E-4,5C000000,-0724,0974,10826,028.4,045.3,0.394,745.1,01.17,0.508
2013-12-13 00:14:00,2584E-4,5C000000,-0724,0974,10764,028.4,045.4,0.394,745.1,01.17,0.508
2013-12-13 00:15:00,2971E-4,5C000000,-0724,0973,10748,028.4,045.3,0.394,745.0,01.17,0.508
2013-12-13 00:16:00,3993E-4,5C000000,-0724,0973,10832,028.4,045.4,0.394,745.0,01.17,0.508
2013-12-13 00:17:00,3183E-4,5C000000,-0724,0974,10782,028.4,045.4,0.393,744.8,01.17,0.508
2013-12-13 00:18:00,4460E-4,5C000000,-0724,0973,10896,028.4,045.4,0.394,744.9,01.17,0.508
2013-12-13 00:19:00,4098E-4,5C000000,-0724,0974,10790,028.4,045.4,0.394,744.9,01.17,0.508
2013-12-13 00:20:00,3305E-4,5C000000,-0724,0974,10806,028.4,045.3,0.394,744.9,01.17,0.508
2013-12-13 00:21:00,4248E-4,5C000000,-0724,0974,10780,028.4,045.3,0.394,744.9,01.17,0.508
2013-12-13 00:22:00,4529E-4,5C000000,-0724,0975,10858,028.4,045.4,0.394,744.9,01.17,0.508
2013-12-13 00:23:00,4593E-4,5C000000,-0724,0974,10884,028.4,045.3,0.394,744.9,01.17,0.508
2013-12-13 00:24:00,4468E-4,5C000000,-0724,0974,10843,028.3,045.4,0.394,744.8,01.17,0.508
2013-12-13 00:25:00,4836E-4,5C000000,-0724,0973,10782,028.4,045.3,0.393,744.7,01.17,0.508
2013-12-13 00:26:00,5789E-4,5C000000,-0724,0974,10783,028.4,045.4,0.394,744.8,01.17,0.508
2013-12-13 00:27:00,5182E-4,5C000000,-0724,0974,10791,028.4,045.4,0.394,744.8,01.17,0.508
2013-12-13 00:28:00,6740E-4,5C000000,-0724,0973,10758,028.4,045.3,0.394,744.8,01.17,0.508
2013-12-13 00:29:00,6459E-4,5C000000,-0724,0974,10735,028.4,045.3,0.394,744.9,01.17,0.508
2013-12-13 00:30:00,7083E-4,5C000000,-0724,0973,10855,028.4,045.3,0.394,744.8,01.17,0.508
2013-12-13 00:31:00,6634E-4,5C000000,-0724,0973,10726,028.4,045.3,0.394,744.9,01.17,0.508
2013-12-13 00:32:00,7653E-4,5C000000,-0724,0974,10786,028.4,045.4,0.394,744.7,01.17,0.508
2013-12-13 00:33:00,6980E-4,5C000000,-0724,0974,10804,028.4,045.4,0.394,744.8,01.17,0.508
2013-12-13 00:34:00,7972E-4,5C000000,-0724,0974,10821,028.4,045.4,0.394,744.7,01.17,0.508
2013-12-13 00:35:00,8762E-4,5C000000,-0724,0975,10701,028.4,045.3,0.394,744.5,01.17,0.508
2013-12-13 00:36:00,9423E-4,5C000000,-0724,0974,10963,028.4,045.4,0.394,744.6,01.17,0.508
2013-12-13 00:37:00,1095E-3,5C000000,-0724,0974,10839,028.4,045.4,0.393,744.4,01.18,0.508
2013-12-13 00:38:00,1004E-3,5C000000,-0724,0974,10789,028.4,045.4,0.394,744.5,01.17,0.508
2013-12-13 00:39:00,1054E-3,5C000000,-0724,0973,10774,028.4,045.3,0.393,744.3,01.18,0.508
2013-12-13 00:40:00,1153E-3,5C000000,-0724,0973,10746,028.4,045.3,0.394,744.0,01.18,0.508
2013-12-13 00:41:00,1219E-3,5C000000,-0724,0973,10843,028.4,045.4,0.394,744.5,01.17,0.508
2013-12-13 00:42:00,1133E-3,5C000000,-0724,0974,10728,028.4,045.4,0.394,744.5,01.17,0.508
2013-12-13 00:43:00,1212E-3,5C000000,-0724,0974,10762,028.4,045.4,0.394,744.5,01.17,0.508
2013-12-13 00:44:00,1211E-3,5C000000,-0724,0974,10928,028.4,045.4,0.393,744.5,01.17,0.508
2013-12-13 00:45:00,1171E-3,5C000000,-0724,0973,10851,028.4,045.4,0.394,744.4,01.18,0.508
2013-12-13 00:46:00,1399E-3,5C000000,-0724,0973,10794,028.4,045.3,0.393,744.5,01.17,0.508
2013-12-13 00:47:00,1227E-3,5C000000,-0724,0974,10918,028.3,045.3,0.394,744.5,01.17,0.508
2013-12-13 00:48:00,1305E-3,5C000000,-0724,0974,10764,028.4,045.4,0.394,744.5,01.17,0.508
2013-12-13 00:49:00,1250E-3,5C000000,-0724,0974,10933,028.4,045.4,0.393,744.5,01.17,0.508
2013-12-13 00:50:00,1128E-3,5C000000,-0724,0974,10842,028.4,045.4,0.394,744.3,01.18,0.508
2013-12-13 00:51:00,1259E-3,5C000000,-0724,0975,10820,028.4,045.4,0.393,744.5,01.17,0.508
2013-12-13 00:52:00,1145E-3,5C000000,-0724,0973,10797,028.4,045.4,0.394,744.6,01.17,0.508
2013-12-13 00:53:00,1101E-3,5C000000,-0724,0974,10795,028.3,045.4,0.393,744.3,01.18,0.508
2013-12-13 00:54:00,1211E-3,5C000000,-0724,0974,10765,028.4,045.4,0.394,744.4,01.18,0.508
2013-12-13 00:55:00,1137E-3,5C000000,-0724,0973,10642,028.4,045.4,0.394,744.4,01.18,0.508
2013-12-13 00:56:00,1043E-3,5C000000,-0724,0974,10684,028.4,045.4,0.394,744.6,01.17,0.508
2013-12-13 00:57:00,9939E-4,5C000000,-0724,0974,10795,028.3,045.4,0.394,744.4,01.18,0.508
2013-12-13 00:58:00,9468E-4,5C000000,-0724,0973,10856,028.4,045.4,0.393,744.4,01.18,0.508
2013-12-13 00:59:00,9579E-4,5C000000,-0724,0974,10825,028.3,045.4,0.394,744.5,01.17,0.508
2013-12-13 01:00:00,8440E-4,5C000000,-0724,0974,10685,028.3,045.4,0.393,744.0,01.18,0.508
2013-12-13 01:01:00,8120E-4,5C000000,-0724,0975,10743,028.3,045.3,0.394,744.4,01.18,0.508
2013-12-13 01:02:00,7884E-4,5C000000,-0724,0973,10803,028.3,045.4,0.394,744.2,01.18,0.508
2013-12-13 01:03:00,7580E-4,5C000000,-0724,0974,10843,028.3,045.4,0.393,744.1,01.18,0.508
2013-12-13 01:04:00,7862E-4,5C000000,-0724,0974,10734,028.3,045.4,0.394,744.1,01.18,0.508
2013-12-13 01:05:00,7737E-4,5C000000,-0724,0974,10719,028.3,045.4,0.393,744.4,01.18,0.508
2013-12-13 01:06:00,7610E-4,5C000000,-0724,0973,10780,028.3,045.3,0.394,743.9,01.18,0.508
2013-12-13 01:07:00,8175E-4,5C000000,-0724,0974,10650,028.3,045.4,0.393,744.2,01.18,0.508
2013-12-13 01:08:00,7074E-4,5C000000,-0724,0974,10856,028.3,045.4,0.394,744.3,01.18,0.508
2013-12-13 01:09:00,7082E-4,5C000000,-0724,0974,10611,028.3,045.4,0.394,743.9,01.18,0.508
2013-12-13 01:10:00,7109E-4,5C000000,-0724,0974,10772,028.3,045.4,0.393,743.8,01.18,0.508
2013-12-13 01:11:00,6009E-4,5C000000,-0724,0973,10792,028.3,045.4,0.394,744.0,01.18,0.508
2013-12-13 01:12:00,6617E-4,5C000000,-0724,0973,10846,028.3,045.4,0.393,743.5,01.18,0.508
2013-12-13 01:13:00,7966E-4,5C000000,-0724,0973,10788,028.3,045.3,0.394,743.6,01.18,0.508
2013-12-13 01:14:00,6681E-4,5C000000,-0724,0973,10803,028.3,045.3,0.393,744.0,01.18,0.508
2013-12-13 01:15:00,6169E-4,5C000000,-0724,0975,10828,028.3,045.3,0.394,743.9,01.18,0.508
2013-12-13 01:16:00,6834E-4,5C000000,-0724,0974,10801,028.3,045.4,0.394,743.9,01.18,0.508
2013-12-13 01:17:00,6996E-4,5C000000,-0724,0974,10832,028.3,045.3,0.393,743.8,01.18,0.508
2013-12-13 01:18:00,7046E-4,5C000000,-0724,0973,10730,028.2,045.4,0.394,743.7,01.18,0.508
2013-12-13 01:19:00,7747E-4,5C000000,-0724,0973,10622,028.2,045.4,0.393,744.0,01.18,0.508
2013-12-13 01:20:00,7363E-4,5C000000,-0724,0973,10772,028.2,045.4,0.394,743.9,01.18,0.508
2013-12-13 01:21:00,6680E-4,5C000000,-0724,0974,10820,028.2,045.3,0.394,744.0,01.18,0.508
2013-12-13 01:22:00,6561E-4,5C000000,-0724,0973,10761,028.2,045.3,0.393,744.1,01.18,0.508
2013-12-13 01:23:00,8196E-4,5C000000,-0724,0974,10791,028.2,045.4,0.394,744.0,01.18,0.508
2013-12-13 01:24:00,8083E-4,5C000000,-0724,0974,10841,028.2,045.4,0.394,744.3,01.18,0.508
2013-12-13 01:25:00,6769E-4,5C000000,-0724,0973,10852,028.2,045.4,0.394,744.2,01.18,0.508
2013-12-13 01:26:00,6086E-4,5C000000,-0724,0973,10851,028.2,045.4,0.394,744.0,01.18,0.508
2013-12-13 01:27:00,7519E-4,5C000000,-0724,0974,10955,028.2,045.4,0.393,744.3,01.18,0.508
2013-12-13 01:28:00,6917E-4,5C000000,-0724,0974,10704,028.2,045.3,0.394,744.3,01.18,0.508
2013-12-13 01:29:00,6945E-4,5C000000,-0724,0973,10798,028.2,045.3,0.394,744.2,01.18,0.508
2013-12-13 01:30:00,6648E-4,5C000000,-0724,0974,10931,028.2,045.3,0.393,744.0,01.18,0.508
2013-12-13 01:31:00,6300E-4,5C000000,-0724,0973,10815,028.2,045.3,0.394,744.5,01.17,0.508
2013-12-13 01:32:00,6073E-4,5C000000,-0724,0973,10842,028.2,045.4,0.394,744.5,01.17,0.508
2013-12-13 01:33:00,6810E-4,5C000000,-0724,0974,10817,028.2,045.4,0.394,744.3,01.18,0.508
2013-12-13 01:34:00,6485E-4,5C000000,-0724,0974,10857,028.2,045.3,0.394,744.4,01.18,0.508
2013-12-13 01:35:00,6102E-4,5C000000,-0724,0974,10768,028.2,045.3,0.394,744.4,01.18,0.508
2013-12-13 01:36:00,6105E-4,5C000000,-0724,0974,10757,028.2,045.4,0.394,744.5,01.17,0.508
2013-12-13 01:37:00,5899E-4,5C000000,-0724,0973,10701,028.2,045.3,0.394,744.5,01.17,0.508
2013-12-13 01:38:00,6934E-4,5C000000,-0724,0974,10775,028.2,045.4,0.394,744.4,01.18,0.508
2013-12-13 01:39:00,6636E-4,5C000000,-0724,0974,10719,028.2,045.3,0.395,744.5,01.17,0.508
2013-12-13 01:40:00,7166E-4,5C000000,-0724,0974,10741,028.2,045.4,0.394,744.5,01.17,0.508
2013-12-13 01:41:00,5190E-4,5C000000,-0724,0973,10855,028.2,045.4,0.394,744.4,01.18,0.508
2013-12-13 01:42:00,5725E-4,5C000000,-0724,0973,10813,028.2,045.4,0.394,744.2,01.18,0.508
2013-12-13 01:43:00,6262E-4,5C000000,-0724,0974,10736,028.1,045.4,0.394,744.1,01.18,0.508
2013-12-13 01:44:00,6256E-4,5C000000,-0724,0974,10868,028.1,045.4,0.394,744.1,01.18,0.508
2013-12-13 01:45:00,6334E-4,5C000000,-0724,0973,10703,028.1,045.3,0.394,744.0,01.18,0.508
2013-12-13 01:46:00,5733E-4,5C000000,-0724,0974,10895,028.1,045.4,0.394,743.7,01.18,0.508
2013-12-13 01:47:00,6646E-4,5C000000,-0724,0974,10856,028.1,045.3,0.394,743.7,01.18,0.508
2013-12-13 01:48:00,5189E-4,5C000000,-0724,0973,10851,028.1,045.3,0.394,743.4,01.18,0.508
2013-12-13 01:49:00,6453E-4,5C000000,-0724,0973,10827,028.1,045.3,0.393,743.2,01.18,0.508
2013-12-13 01:50:00,5342E-4,5C000000,-0724,0972,10785,028.1,045.3,0.394,742.9,01.18,0.508
2013-12-13 01:51:00,4991E-4,5C000000,-0724,0974,10683,028.1,045.3,0.393,742.7,01.18,0.508
2013-12-13 01:52:00,5528E-4,5C000000,-0724,0974,10818,028.1,045.4,0.394,742.5,01.18,0.508
2013-12-13 01:53:00,7103E-4,5C000000,-0724,0973,10835,028.1,045.4,0.393,742.2,01.18,0.508
2013-12-13 01:54:00,4875E-4,5C000000,-0724,0974,10603,028.1,045.4,0.393,742.0,01.18,0.508
2013-12-13 01:55:00,5122E-4,5C000000,-0724,0974,10962,028.1,045.3,0.393,742.2,01.18,0.508
2013-12-13 01:56:00,3544E-4,5C000000,-0724,0973,10712,028.1,045.3,0.393,741.8,01.18,0.508
2013-12-13 01:57:00,4596E-4,5C000000,-0724,0973,10839,028.1,045.3,0.394,742.2,01.18,0.508
2013-12-13 01:58:00,5365E-4,5C000000,-0724,0974,10986,028.0,045.4,0.393,741.9,01.18,0.508
2013-12-13 01:59:00,5598E-4,5C000000,-0724,0973,10882,028.0,045.4,0.393,741.6,01.18,0.508
2013-12-13 02:00:00,4989E-4,5C000000,-0724,0973,10913,028.0,045.3,0.393,741.6,01.18,0.508
2013-12-13 02:01:00,5370E-4,5C000000,-0724,0973,10783,028.0,045.3,0.393,741.6,01.18,0.508
2013-12-13 02:02:00,5396E-4,5C000000,-0724,0973,10633,028.0,045.3,0.394,741.8,01.18,0.508
2013-12-13 02:03:00,4604E-4,5C000000,-0724,0972,10810,028.0,045.3,0.392,741.4,01.18,0.508
2013-12-13 02:04:00,5019E-4,5C000000,-0724,0973,10837,028.0,045.3,0.394,741.9,01.18,0.508
2013-12-13 02:05:00,4042E-4,5C000000,-0724,0973,10782,028.0,045.3,0.393,742.0,01.18,0.508
2013-12-13 02:06:00,3319E-4,5C000000,-0724,0974,10813,028.0,045.3,0.394,742.5,01.18,0.508
2013-12-13 02:07:00,3777E-4,5C000000,-0724,0974,10861,028.0,045.4,0.394,742.4,01.18,0.508
2013-12-13 02:08:00,5177E-4,5C000000,-0724,0972,10812,028.0,045.4,0.393,742.6,01.18,0.508
2013-12-13 02:09:00,4256E-4,5C000000,-0724,0973,10910,027.9,045.3,0.393,742.5,01.18,0.508
2013-12-13 02:10:00,4512E-4,5C000000,-0724,0972,10825,027.9,045.3,0.394,742.9,01.18,0.508
2013-12-13 02:11:00,3883E-4,5C000000,-0724,0972,10795,027.9,045.3,0.394,743.3,01.18,0.508
2013-12-13 02:12:00,4933E-4,5C000000,-0724,0973,10756,027.9,045.3,0.394,743.1,01.18,0.508
2013-12-13 02:13:00,3892E-4,5C000000,-0724,0973,10911,027.9,045.3,0.394,743.2,01.18,0.508
2013-12-13 02:14:00,4810E-4,5C000000,-0724,0974,10913,027.9,045.3,0.395,743.6,01.18,0.508
2013-12-13 02:15:00,4840E-4,5C000000,-0724,0973,10804,027.9,045.3,0.394,743.9,01.18,0.508
2013-12-13 02:16:00,3851E-4,5C000000,-0724,0973,10835,027.9,045.3,0.394,744.0,01.18,0.508
2013-12-13 02:17:00,3333E-4,5C000000,-0724,0972,10841,027.9,045.3,0.395,744.2,01.18,0.508
2013-12-13 02:18:00,4247E-4,5C000000,-0724,0974,10934,027.9,045.3,0.394,744.2,01.18,0.508
2013-12-13 02:19:00,4121E-4,5C000000,-0724,0974,10811,027.9,045.3,0.395,744.3,01.18,0.508
2013-12-13 02:20:00,4548E-4,5C000000,-0724,0973,10795,027.9,045.3,0.394,744.2,01.18,0.508
2013-12-13 02:21:00,5017E-4,5C000000,-0724,0973,10718,027.9,045.3,0.394,744.0,01.18,0.508
2013-12-13 02:22:00,5370E-4,5C000000,-0724,0973,10766,027.9,045.3,0.395,744.2,01.18,0.508
2013-12-13 02:23:00,4448E-4,5C000000,-0724,0974,10733,027.9,045.4,0.394,744.3,01.18,0.508
2013-12-13 02:24:00,4688E-4,5C000000,-0724,0973,10791,027.9,045.3,0.395,744.3,01.18,0.508
2013-12-13 02:25:00,5122E-4,5C000000,-0724,0972,10877,027.9,045.3,0.394,744.0,01.18,0.508
2013-12-13 02:26:00,5478E-4,5C000000,-0724,0973,10767,027.9,045.3,0.394,744.0,01.18,0.508
2013-12-13 02:27:00,4662E-4,5C000000,-0724,0973,10766,027.9,045.3,0.394,744.0,01.18,0.508
2013-12-13 02:28:00,6059E-4,5C000000,-0724,0972,10862,027.9,045.4,0.394,743.8,01.18,0.508
2013-12-13 02:29:00,5414E-4,5C000000,-0724,0973,10734,027.9,045.4,0.395,744.0,01.18,0.508
2013-12-13 02:30:00,4050E-4,5C000000,-0724,0974,10774,027.9,045.4,0.394,743.8,01.18,0.508
2013-12-13 02:31:00,4303E-4,5C000000,-0724,0973,10739,027.9,045.4,0.395,743.8,01.18,0.508
2013-12-13 02:32:00,4822E-4,5C000000,-0724,0972,10755,027.9,045.3,0.394,743.7,01.18,0.508
2013-12-13 02:33:00,4726E-4,5C000000,-0724,0973,10883,027.9,045.3,0.394,743.6,01.18,0.508
2013-12-13 02:34:00,3314E-4,5C000000,-0724,0973,10819,027.9,045.3,0.394,743.5,01.18,0.508
2013-12-13 02:35:00,3994E-4,5C000000,-0724,0973,10752,027.9,045.4,0.394,743.6,01.18,0.508
2013-12-13 02:36:00,4439E-4,5C000000,-0724,0973,10822,028.0,045.4,0.394,743.7,01.18,0.508
2013-12-13 02:37:00,4872E-4,5C000000,-0724,0972,10777,027.9,045.3,0.394,744.0,01.18,0.508
2013-12-13 02:38:00,3496E-4,5C000000,-0724,0973,10880,027.9,045.3,0.394,743.7,01.18,0.508
2013-12-13 02:39:00,4819E-4,5C000000,-0724,0973,10938,028.0,045.3,0.394,743.8,01.18,0.508
2013-12-13 02:40:00,5451E-4,5C000000,-0724,0972,10805,027.9,045.3,0.395,743.9,01.18,0.508
2013-12-13 02:41:00,4965E-4,5C000000,-0724,0973,10775,027.9,045.3,0.394,743.9,01.18,0.508
2013-12-13 02:42:00,5332E-4,5C000000,-0724,0972,10841,027.9,045.3,0.394,744.0,01.18,0.508
2013-12-13 02:43:00,4977E-4,5C000000,-0724,0974,10745,028.0,045.4,0.395,743.9,01.18,0.508
2013-12-13 02:44:00,4746E-4,5C000000,-0724,0973,10889,028.0,045.3,0.394,743.9,01.18,0.508
2013-12-13 02:45:00,4227E-4,5C000000,-0724,0974,10708,028.0,045.3,0.394,743.9,01.18,0.508
2013-12-13 02:46:00,5459E-4,5C000000,-0724,0973,10714,028.0,045.3,0.394,743.7,01.18,0.508
2013-12-13 02:47:00,4917E-4,5C000000,-0724,0973,10762,028.0,045.4,0.394,743.7,01.18,0.508
2013-12-13 02:48:00,4868E-4,5C000000,-0724,0973,10818,028.0,045.4,0.394,743.7,01.18,0.508
2013-12-13 02:49:00,4390E-4,5C000000,-0724,0974,10795,028.0,045.3,0.394,743.7,01.18,0.508
2013-12-13 02:50:00,3891E-4,5C000000,-0724,0973,10756,028.0,045.3,0.394,743.7,01.18,0.508
2013-12-13 02:51:00,5594E-4,5C000000,-0724,0973,10776,028.0,045.3,0.394,743.6,01.18,0.508
2013-12-13 02:52:00,4393E-4,5C000000,-0724,0972,10860,028.0,045.3,0.394,743.6,01.18,0.508
2013-12-13 02:53:00,4664E-4,5C000000,-0724,0972,10859,028.0,045.3,0.394,743.8,01.18,0.508
2013-12-13 02:54:00,3406E-4,5C000000,-0724,0974,10672,028.0,045.3,0.394,743.8,01.18,0.508
2013-12-13 02:55:00,4445E-4,5C000000,-0724,0972,10874,027.9,045.3,0.394,743.7,01.18,0.508
2013-12-13 02:56:00,4442E-4,5C000000,-0724,0973,10880,028.0,045.3,0.394,743.6,01.18,0.508
2013-12-13 02:57:00,3157E-4,5C000000,-0724,0973,10786,028.0,045.3,0.394,743.5,01.18,0.508
2013-12-13 02:58:00,4308E-4,5C000000,-0724,0973,10833,028.0,045.3,0.394,743.5,01.18,0.508
2013-12-13 02:59:00,5160E-4,5C000000,-0724,0972,10988,028.0,045.3,0.394,743.4,01.18,0.508
2013-12-13 03:00:00,3513E-4,5C000000,-0724,0973,10830,028.0,045.3,0.394,743.4,01.18,0.508
2013-12-13 03:01:00,3056E-4,5C000000,-0724,0973,10734,028.0,045.3,0.394,743.3,01.18,0.508
2013-12-13 03:02:00,4260E-4,5C000000,-0724,0973,10787,028.0,045.4,0.394,743.5,01.18,0.508
2013-12-13 03:03:00,3915E-4,5C000000,-0724,0974,10861,028.0,045.3,0.394,743.3,01.18,0.508
2013-12-13 03:04:00,5157E-4,5C000000,-0724,0974,10822,028.0,045.4,0.393,743.0,01.18,0.508
2013-12-13 03:05:00,2900E-4,5C000000,-0724,0974,10750,028.0,045.3,0.394,743.2,01.18,0.508
2013-12-13 03:06:00,4282E-4,5C000000,-0724,0973,10915,028.0,045.3,0.393,743.3,01.18,0.508
2013-12-13 03:07:00,3942E-4,5C000000,-0724,0973,10752,028.0,045.3,0.394,743.2,01.18,0.508
2013-12-13 03:08:00,2763E-4,5C000000,-0724,0973,10806,028.0,045.3,0.393,743.1,01.18,0.508
2013-12-13 03:09:00,3644E-4,5C000000,-0724,0973,10750,028.0,045.3,0.394,742.9,01.18,0.508
2013-12-13 03:10:00,2975E-4,5C000000,-0724,0974,10661,028.0,045.3,0.394,742.6,01.18,0.508
2013-12-13 03:11:00,3218E-4,5C000000,-0724,0973,10733,028.0,045.3,0.393,742.5,01.18,0.508
2013-12-13 03:12:00,3570E-4,5C000000,-0724,0973,10918,028.0,045.4,0.394,742.3,01.18,0.508
2013-12-13 03:13:00,3468E-4,5C000000,-0724,0973,10859,027.9,045.3,0.393,741.9,01.18,0.508
2013-12-13 03:14:00,3580E-4,5C000000,-0724,0974,10772,028.0,045.4,0.393,741.7,01.18,0.508
2013-12-13 03:15:00,4343E-4,5C000000,-0724,0972,10836,027.9,045.3,0.394,741.9,01.18,0.508
2013-12-13 03:16:00,3484E-4,5C000000,-0724,0972,10916,027.9,045.3,0.393,741.6,01.18,0.508
2013-12-13 03:17:00,4086E-4,5C000000,-0724,0972,10762,027.9,045.3,0.393,741.4,01.18,0.508
2013-12-13 03:18:00,4244E-4,5C000000,-0724,0973,10661,027.9,045.4,0.393,741.5,01.18,0.508
2013-12-13 03:19:00,4001E-4,5C000000,-0724,0972,10817,027.9,045.3,0.393,741.9,01.18,0.508
2013-12-13 03:20:00,3076E-4,5C000000,-0724,0974,10873,027.9,045.3,0.394,741.1,01.18,0.508
2013-12-13 03:21:00,3434E-4,5C000000,-0724,0973,10673,027.9,045.3,0.393,741.6,01.18,0.508
2013-12-13 03:22:00,4383E-4,5C000000,-0724,0973,10682,027.9,045.3,0.393,741.5,01.18,0.508
2013-12-13 03:23:00,4009E-4,5C000000,-0724,0973,10708,027.9,045.3,0.393,741.4,01.18,0.508
2013-12-13 03:24:00,2830E-4,5C000000,-0724,0973,10897,027.9,045.3,0.393,741.0,01.18,0.508
2013-12-13 03:25:00,4497E-4,5C000000,-0724,0972,10790,027.9,045.3,0.393,741.1,01.18,0.508
2013-12-13 03:26:00,3325E-4,5C000000,-0724,0972,10838,027.9,045.4,0.393,740.8,01.18,0.508
2013-12-13 03:27:00,3655E-4,5C000000,-0724,0972,10839,027.9,045.3,0.393,740.7,01.18,0.508
2013-12-13 03:28:00,2969E-4,5C000000,-0724,0972,10622,027.8,045.3,0.393,740.6,01.18,0.508
2013-12-13 03:29:00,2229E-4,5C000000,-0724,0972,10755,027.8,045.3,0.393,741.3,01.18,0.508
2013-12-13 03:30:00,3468E-4,5C000000,-0724,0973,10859,027.8,045.3,0.393,741.0,01.18,0.508
2013-12-13 03:31:00,2887E-4,5C000000,-0724,0973,10732,027.8,045.3,0.393,741.0,01.18,0.508
2013-12-13 03:32:00,2800E-4,5C000000,-0724,0973,10641,027.8,045.3,0.394,741.0,01.18,0.508
2013-12-13 03:33:00,2699E-4,5C000000,-0724,0973,10783,027.8,045.3,0.393,741.1,01.18,0.508
2013-12-13 03:34:00,1855E-4,5C000000,-0724,0972,10799,027.8,045.3,0.393,740.8,01.18,0.508
2013-12-13 03:35:00,2853E-4,5C000000,-0724,0973,10815,027.7,045.3,0.393,741.4,01.18,0.508
2013-12-13 03:36:00,3257E-4,5C000000,-0724,0973,10725,027.7,045.4,0.393,741.3,01.18,0.508
2013-12-13 03:37:00,2285E-4,5C000000,-0724,0973,10760,027.7,045.3,0.393,741.4,01.18,0.508
2013-12-13 03:38:00,2666E-4,5C000000,-0724,0972,10743,027.7,045.3,0.393,741.0,01.18,0.508
2013-12-13 03:39:00,2437E-4,5C000000,-0724,0973,10868,027.7,045.3,0.394,741.1,01.18,0.508
2013-12-13 03:40:00,2799E-4,5C000000,-0724,0972,10782,027.7,045.3,0.393,741.0,01.18,0.508
2013-12-13 03:41:00,3338E-4,5C000000,-0724,0972,10845,027.7,045.3,0.394,741.4,01.18,0.508
2013-12-13 03:42:00,2521E-4,5C000000,-0724,0973,10632,027.6,045.3,0.393,741.4,01.18,0.508
2013-12-13 03:43:00,2765E-4,5C000000,-0724,0971,10724,027.6,045.3,0.394,741.1,01.18,0.508
2013-12-13 03:44:00,2618E-4,5C000000,-0724,0972,10836,027.6,045.3,0.393,741.3,01.18,0.508
2013-12-13 03:45:00,2498E-4,5C000000,-0724,0973,10881,027.6,045.3,0.394,741.8,01.18,0.508
2013-12-13 03:46:00,2347E-4,5C000000,-0724,0972,10693,027.6,045.3,0.394,742.1,01.18,0.508
2013-12-13 03:47:00,2688E-4,5C000000,-0724,0973,10887,027.6,045.3,0.394,742.2,01.18,0.508
2013-12-13 03:48:00,2320E-4,5C000000,-0724,0972,10686,027.6,045.3,0.394,742.4,01.18,0.508
2013-12-13 03:49:00,2180E-4,5C000000,-0724,0972,10649,027.6,045.3,0.394,742.4,01.18,0.508
2013-12-13 03:50:00,3389E-4,5C000000,-0724,0974,10974,027.6,045.3,0.394,742.6,01.18,0.508
2013-12-13 03:51:00,3176E-4,5C000000,-0724,0972,10718,027.5,045.3,0.395,742.5,01.18,0.508
2013-12-13 03:52:00,1905E-4,5C000000,-0724,0973,10811,027.6,045.3,0.394,742.6,01.18,0.508
2013-12-13 03:53:00,2801E-4,5C000000,-0724,0972,10851,027.6,045.3,0.394,742.0,01.18,0.508
2013-12-13 03:54:00,2510E-4,5C000000,-0724,0973,10868,027.6,045.3,0.394,742.0,01.18,0.508
2013-12-13 03:55:00,3205E-4,5C000000,-0724,0971,10882,027.5,045.3,0.395,742.3,01.18,0.508
2013-12-13 03:56:00,2603E-4,5C000000,-0724,0972,10590,027.5,045.3,0.393,741.8,01.18,0.508
2013-12-13 03:57:00,1984E-4,5C000000,-0724,0972,10831,027.5,045.3,0.394,742.0,01.18,0.508
2013-12-13 03:58:00,2142E-4,5C000000,-0724,0972,10741,027.5,045.3,0.394,742.0,01.18,0.508
2013-12-13 03:59:00,2988E-4,5C000000,-0724,0973,10735,027.5,045.3,0.394,742.2,01.18,0.508
2013-12-13 04:00:00,2578E-4,5C000000,-0724,0972,10766,027.5,045.4,0.394,742.6,01.18,0.508
2013-12-13 04:01:00,2874E-4,5C000000,-0724,0973,10843,027.5,045.3,0.395,742.4,01.18,0.508
2013-12-13 04:02:00,2841E-4,5C000000,-0724,0973,10845,027.5,045.3,0.394,742.4,01.18,0.508
2013-12-13 04:03:00,3063E-4,5C000000,-0724,0973,10791,027.5,045.3,0.395,742.3,01.18,0.508
2013-12-13 04:04:00,2943E-4,5C000000,-0724,0973,10852,027.5,045.3,0.394,742.5,01.18,0.508
2013-12-13 04:05:00,1909E-4,5C000000,-0724,0972,10945,027.5,045.3,0.395,742.4,01.18,0.508
2013-12-13 04:06:00,3379E-4,5C000000,-0724,0971,10809,027.5,045.3,0.394,742.4,01.18,0.508
2013-12-13 04:07:00,3536E-4,5C000000,-0724,0972,10648,027.5,045.3,0.394,742.3,01.18,0.508
2013-12-13 04:08:00,2575E-4,5C000000,-0724,0971,10810,027.5,045.3,0.394,742.3,01.18,0.508
2013-12-13 04:09:00,3685E-4,5C000000,-0724,0972,10841,027.5,045.3,0.394,742.5,01.18,0.508
2013-12-13 04:10:00,2499E-4,5C000000,-0724,0972,10749,027.5,045.3,0.394,742.3,01.18,0.508
2013-12-13 04:11:00,1934E-4,5C000000,-0724,0972,10890,027.5,045.3,0.395,742.4,01.18,0.508
2013-12-13 04:12:00,2764E-4,5C000000,-0724,0972,10803,027.5,045.3,0.394,742.3,01.18,0.508
2013-12-13 04:13:00,3199E-4,5C000000,-0724,0971,10817,027.5,045.3,0.395,742.5,01.18,0.508
2013-12-13 04:14:00,2464E-4,5C000000,-0724,0972,10789,027.5,045.3,0.394,742.5,01.18,0.508
2013-12-13 04:15:00,2407E-4,5C000000,-0724,0971,10685,027.5,045.3,0.395,742.6,01.18,0.508
2013-12-13 04:16:00,3602E-4,5C000000,-0724,0972,10863,027.5,045.3,0.394,742.2,01.18,0.508
2013-12-13 04:17:00,2821E-4,5C000000,-0724,0971,10831,027.5,045.3,0.395,742.4,01.18,0.508
2013-12-13 04:18:00,2349E-4,5C000000,-0724,0973,10916,027.5,045.3,0.394,742.3,01.18,0.508
2013-12-13 04:19:00,2511E-4,5C000000,-0724,0972,10629,027.4,045.3,0.395,742.4,01.18,0.508
2013-12-13 04:20:00,3180E-4,5C000000,-0724,0972,10845,027.5,045.3,0.394,742.2,01.18,0.508